Regional Weather Roundup
Issued by NWS Jackson, KY

Home | Current Version | Previous Version | Graphics & Text | Print | Product List | Glossary On
Versions: 1 2 3 4 5 6 7 8 9 10 11 12 13 14 15 16 17 18 19 20 21 22 23 24 25 26 27 28 29 30 31 32 33 34 35 36 37 38 39 40 41 42 43 44 45 46 47 48 49 50
000
ASUS43 KJKL 281610
RWRJKL

EAST KENTUCKY HOURLY WEATHER ROUNDUP
NATIONAL WEATHER SERVICE JACKSON KY
1200 PM EDT FRI AUG 28 2015

NOTE: "FAIR" INDICATES FEW OR NO CLOUDS BELOW 12,000 FEET WITH
NO SIGNIFICANT WEATHER AND/OR OBSTRUCTIONS TO VISIBILITY.

* THESE REPORTS ARE NOT UNDER NWS QUALITY CONTROL AND MAY NOT
  REPORT WEATHER SUCH AS PRECIPITATION AND FOG.

KYZ079-080-083-085-087-088-110-112-115-119-120-281700
...EASTERN KENTUCKY...

CITY           SKY/WX    TMP DP  RH WIND       PRES   REMARKS
JACKSON        SUNNY     74  61  63 CALM      30.22S
LONDON         SUNNY     77  60  55 CALM      30.21S
SOMERSET*      SUNNY     73  59  60 S3        30.20F
MONTICELLO*    SUNNY     78  64  61 CALM      30.21F
WILLIAMSBURG*    N/A    N/A N/A N/A CALM        N/A
MIDDLESBORO*   PTSUNNY   78  64  62 CALM      30.21F
HARLAN APT*      N/A     77  61  57 MISG      30.23S
HAZARD APT*    SUNNY     77  63  61 CALM      30.22S
BLACK MTN*       N/A     66  61  82 SW1         N/A
PIKEVILLE APT* SUNNY     73  63  68 CALM      30.23S
BIG SANDY*     SUNNY     74  62  65 CALM      30.22S
MOREHEAD APT*  SUNNY     75  59  57 VRB6      30.23S
$$

KYZ035-036-041-042-044-050-067-078-099-281700
...CENTRAL KENTUCKY...

CITY           SKY/WX    TMP DP  RH WIND       PRES   REMARKS
MT STERLING*   SUNNY     73  59  60 SE6       30.22F
FLEMING/MASON* SUNNY     73  57  56 SE7       30.22F
DANVILLE*      SUNNY     73  61  64 E3        30.21S
RICHMOND*      SUNNY     75  59  57 CALM      30.20S
LEXINGTON      SUNNY     77  56  48 E9        30.20S
FRANKFORT      SUNNY     75  57  53 E8        30.19S
$$

KYZ091>093-OHZ055-061-077-WVZ005-015-034-035-042-281700
...SOUTHERN OHIO/WEST VIRGINIA...

CITY           SKY/WX    TMP DP  RH WIND       PRES   REMARKS
COVINGTON      MOSUNNY   74  55  51 E3        30.21R
COLUMBUS       MOSUNNY   71  55  56 CALM      30.21F
DAYTON         MOSUNNY   73  54  51 S7        30.23R
WILMINGTON     SUNNY     71  54  54 E5        30.22R
HUNTINGTON     SUNNY     74  57  55 VRB5      30.21S
CHARLESTON     MOSUNNY   75  59  57 CALM      30.21S
PINEVILLE*     SUNNY     78  64  61 MISG      30.29S
BECKLEY        PTSUNNY   73  58  59 W6        30.27R
BLUEFIELD      MOSUNNY   77  58  51 VRB6      30.29R
$$

VAZ002-007-008-TNZ017-027-036-066-071-281700
...SOUTHWEST VIRGINIA/EAST TENNESSEE...

CITY           SKY/WX    TMP DP  RH WIND       PRES   REMARKS
WISE*          SUNNY     75  59  57 SW8       30.29
JONESVILLE*    SUNNY     77  45  31 E3        30.25S
ABINGDON*      SUNNY     77  58  51 CALM      30.26S
BRISTOL        MOSUNNY   77  60  55 S3        30.23S
KNOXVILLE      MOSUNNY   83  64  52 N5        30.19S
OAK RIDGE      SUNNY     80  62  54 CALM      30.21S
CROSSVILLE     SUNNY     78  63  59 S6        30.23S
NASHVILLE      MOSUNNY   80  62  54 SE5       30.15F
$$

...KEY TO REMARKS...
VSB - VISIBILITY IN MILES
WCI - WIND CHILL INDEX
HX  - HEAT INDEX

$$


USA.gov is the U.S. government's official web portal to all federal, state and local government web resources and services.